When you browse on this site, cookies collect data to enhance your experience and personalize the content and advertising you see.
Visit our Privacy Policy to learn more. By continuing to use the site, you agree to this use of cookies and data.
  • In Germany
  • List of Countries
  • For 7 days
  • Water Temperature
  • Weather Map
  • Weather Widgets
  • user-avatar
    Login

    Hourly Weather Hobart

    Today, 18 October, Friday

    Time Temperature Precipitation Wind Pressure Humidity
    00:00 +5°C° 0 mm 2 mps 742 mmHg 92%
    01:00 +5°C° 0 mm 2 mps 742 mmHg 91%
    02:00 +4°C° 0 mm 2 mps 741 mmHg 89%
    03:00 +4°C° 0 mm 2 mps 741 mmHg 86%
    04:00 +4°C° 0 mm 2 mps 741 mmHg 85%
    05:00 +6°C° 0 mm 2 mps 741 mmHg 80%
    06:00 +7°C° 0 mm 3 mps 741 mmHg 75%
    07:00 +8°C° 0 mm 3 mps 740 mmHg 70%
    08:00 +10°C° 0 mm 4 mps 740 mmHg 64%
    09:00 +12°C° 0 mm 4 mps 739 mmHg 58%
    10:00 +13°C° 0 mm 6 mps 739 mmHg 53%
    11:00 +13°C° 0 mm 6 mps 738 mmHg 53%
    12:00 +14°C° 0 mm 6 mps 737 mmHg 54%
    13:00 +14°C° 0 mm 6 mps 736 mmHg 54%
    14:00 +12°C° 0.5 mm 5 mps 736 mmHg 66%
    15:00 +10°C° 0.5 mm 5 mps 735 mmHg 77%
    16:00 +8°C° 0 mm 5 mps 735 mmHg 91%
    17:00 +8°C° 0.3 mm 5 mps 735 mmHg 91%
    18:00 +7°C° 0.3 mm 5 mps 736 mmHg 91%
    19:00 +6°C° 0.3 mm 5 mps 736 mmHg 91%
    20:00 +5°C° 0 mm 5 mps 737 mmHg 89%
    21:00 +3°C° 0 mm 5 mps 738 mmHg 87%
    22:00 +2°C° 0 mm 5 mps 738 mmHg 85%
    23:00 +2°C° 0 mm 5 mps 738 mmHg 84%

    Tomorrow, 19 October, Saturday

    Time Temperature Precipitation Wind Pressure Humidity
    00:00 +1°C° 0 mm 4 mps 738 mmHg 83%
    01:00 +2°C° 0 mm 3 mps 738 mmHg 82%
    02:00 +2°C° 0 mm 3 mps 738 mmHg 84%
    03:00 +2°C° 0 mm 3 mps 738 mmHg 85%
    04:00 +3°C° 0 mm 3 mps 738 mmHg 87%
    05:00 +3°C° 0.1 mm 3 mps 738 mmHg 85%
    06:00 +4°C° 0.1 mm 3 mps 738 mmHg 83%
    07:00 +5°C° 0.1 mm 3 mps 739 mmHg 81%
    08:00 +5°C° 0.2 mm 4 mps 739 mmHg 79%
    09:00 +6°C° 0.2 mm 5 mps 739 mmHg 78%
    10:00 +7°C° 0.2 mm 5 mps 739 mmHg 76%
    11:00 +8°C° 0.3 mm 5 mps 739 mmHg 71%
    12:00 +8°C° 0.3 mm 5 mps 739 mmHg 65%
    13:00 +9°C° 0.3 mm 5 mps 739 mmHg 60%
    14:00 +8°C° 0.2 mm 6 mps 739 mmHg 64%
    15:00 +8°C° 0.2 mm 6 mps 739 mmHg 67%
    16:00 +7°C° 0.2 mm 6 mps 739 mmHg 71%
    17:00 +7°C° 0 mm 6 mps 740 mmHg 72%
    18:00 +6°C° 0 mm 5 mps 740 mmHg 73%
    19:00 +6°C° 0 mm 5 mps 741 mmHg 75%
    20:00 +6°C° 0.1 mm 5 mps 741 mmHg 77%
    21:00 +5°C° 0.1 mm 5 mps 742 mmHg 80%
    22:00 +5°C° 0.1 mm 5 mps 742 mmHg 82%
    23:00 +5°C° 0 mm 5 mps 742 mmHg 80%

    Day after tomorrow, 20 October, Sunday

    Time Temperature Precipitation Wind Pressure Humidity
    00:00 +6°C° 0 mm 5 mps 742 mmHg 78%
    01:00 +6°C° 0 mm 5 mps 742 mmHg 76%
    02:00 +6°C° 0 mm 5 mps 742 mmHg 77%
    03:00 +7°C° 0 mm 5 mps 742 mmHg 78%
    04:00 +7°C° 0 mm 5 mps 742 mmHg 79%
    05:00 +8°C° 0 mm 5 mps 742 mmHg 77%
    06:00 +8°C° 0 mm 5 mps 743 mmHg 74%
    07:00 +9°C° 0 mm 5 mps 743 mmHg 72%
    08:00 +9°C° 0 mm 5 mps 744 mmHg 73%
    09:00 +9°C° 0 mm 5 mps 744 mmHg 74%
    10:00 +10°C° 0 mm 5 mps 744 mmHg 74%
    11:00 +10°C° 0.1 mm 5 mps 745 mmHg 77%
    12:00 +11°C° 0.1 mm 4 mps 745 mmHg 79%
    13:00 +11°C° 0.1 mm 4 mps 746 mmHg 81%
    14:00 +11°C° 0 mm 4 mps 746 mmHg 78%
    15:00 +12°C° 0 mm 4 mps 746 mmHg 75%
    16:00 +12°C° 0 mm 5 mps 747 mmHg 72%
    17:00 +12°C° 0 mm 4 mps 748 mmHg 74%
    18:00 +11°C° 0 mm 4 mps 748 mmHg 76%
    19:00 +10°C° 0 mm 3 mps 749 mmHg 78%
    20:00 +10°C° 0 mm 3 mps 750 mmHg 80%
    21:00 +9°C° 0 mm 2 mps 750 mmHg 83%
    22:00 +9°C° 0 mm 2 mps 750 mmHg 85%
    23:00 +9°C° 0 mm 2 mps 751 mmHg 86%

    21 October, Monday

    Time Temperature Precipitation Wind Pressure Humidity
    00:00 +8°C° 0 mm 3 mps 751 mmHg 87%
    01:00 +8°C° 0 mm 3 mps 751 mmHg 87%
    02:00 +8°C° 0 mm 3 mps 751 mmHg 87%
    03:00 +7°C° 0 mm 2 mps 751 mmHg 87%
    04:00 +7°C° 0 mm 2 mps 751 mmHg 87%
    05:00 +8°C° 0 mm 2 mps 752 mmHg 82%
    06:00 +9°C° 0 mm 2 mps 752 mmHg 78%
    07:00 +10°C° 0 mm 2 mps 753 mmHg 73%
    08:00 +13°C° 0 mm 2 mps 753 mmHg 64%
    09:00 +15°C° 0 mm 2 mps 753 mmHg 54%
    10:00 +17°C° 0 mm 2 mps 753 mmHg 45%
    11:00 +18°C° 0 mm 2 mps 753 mmHg 41%
    12:00 +19°C° 0 mm 2 mps 753 mmHg 38%
    13:00 +20°C° 0 mm 2 mps 753 mmHg 34%
    14:00 +19°C° 0 mm 2 mps 753 mmHg 36%
    15:00 +19°C° 0 mm 2 mps 753 mmHg 38%
    16:00 +18°C° 0 mm 2 mps 753 mmHg 40%
    17:00 +16°C° 0 mm 2 mps 753 mmHg 52%
    18:00 +13°C° 0 mm 2 mps 753 mmHg 64%
    19:00 +10°C° 0 mm 1 mps 754 mmHg 76%
    20:00 +9°C° 0 mm 1 mps 754 mmHg 80%
    21:00 +8°C° 0 mm 1 mps 754 mmHg 85%
    22:00 +6°C° 0 mm 2 mps 754 mmHg 89%
    23:00 +5°C° 0 mm 2 mps 754 mmHg 91%

    22 October, Tuesday

    Time Temperature Precipitation Wind Pressure Humidity
    00:00 +5°C° 0 mm 2 mps 754 mmHg 92%
    01:00 +4°C° 0 mm 2 mps 754 mmHg 93%
    02:00 +4°C° 0 mm 2 mps 754 mmHg 94%
    03:00 +4°C° 0 mm 2 mps 754 mmHg 94%
    04:00 +3°C° 0 mm 2 mps 754 mmHg 94%
    05:00 +5°C° 0 mm 2 mps 754 mmHg 87%
    06:00 +7°C° 0 mm 1 mps 754 mmHg 80%
    07:00 +9°C° 0 mm 1 mps 754 mmHg 74%
    08:00 +12°C° 0 mm 1 mps 754 mmHg 62%
    09:00 +15°C° 0 mm 1 mps 754 mmHg 50%
    10:00 +19°C° 0 mm 1 mps 754 mmHg 38%
    11:00 +20°C° 0 mm 1 mps 754 mmHg 36%
    12:00 +20°C° 0 mm 2 mps 754 mmHg 34%
    13:00 +23°C° 0 mm 2 mps 754 mmHg 32%
    14:00 +20°C° 0 mm 2 mps 753 mmHg 39%
    15:00 +18°C° 0 mm 2 mps 753 mmHg 47%
    16:00 +16°C° 0 mm 3 mps 752 mmHg 55%
    17:00 +14°C° 0 mm 2 mps 752 mmHg 66%
    18:00 +12°C° 0 mm 1 mps 752 mmHg 77%
    19:00 +8°C° 0 mm 0 mps 752 mmHg 88%
    20:00 +9°C° 0 mm 1 mps 752 mmHg 87%
    21:00 +9°C° 0 mm 1 mps 752 mmHg 87%
    22:00 +9°C° 0 mm 1 mps 752 mmHg 86%
    23:00 +9°C° 0 mm 1 mps 752 mmHg 81%

    23 October, Wednesday

    Time Temperature Precipitation Wind Pressure Humidity
    00:00 +8°C° 0 mm 2 mps 752 mmHg 76%
    01:00 +8°C° 0 mm 2 mps 751 mmHg 70%
    02:00 +8°C° 0 mm 2 mps 751 mmHg 65%
    03:00 +9°C° 0 mm 2 mps 751 mmHg 60%
    04:00 +9°C° 0 mm 2 mps 751 mmHg 54%
    05:00 +10°C° 0 mm 2 mps 751 mmHg 51%
    06:00 +12°C° 0 mm 2 mps 751 mmHg 47%
    07:00 +13°C° 0 mm 2 mps 751 mmHg 43%
    08:00 +16°C° 0 mm 2 mps 750 mmHg 37%
    09:00 +18°C° 0 mm 2 mps 750 mmHg 31%
    10:00 +21°C° 0 mm 2 mps 750 mmHg 25%
    11:00 +23°C° 0 mm 2 mps 750 mmHg 26%
    12:00 +24°C° 0 mm 3 mps 750 mmHg 27%
    13:00 +25°C° 0 mm 3 mps 750 mmHg 27%
    14:00 +24°C° 0 mm 3 mps 750 mmHg 32%
    15:00 +22°C° 0 mm 3 mps 749 mmHg 36%
    16:00 +21°C° 0 mm 2 mps 749 mmHg 40%
    17:00 +18°C° 0 mm 2 mps 749 mmHg 55%
    18:00 +15°C° 0 mm 2 mps 749 mmHg 69%
    19:00 +12°C° 0 mm 2 mps 750 mmHg 84%
    20:00 +11°C° 0 mm 1 mps 750 mmHg 87%
    21:00 +11°C° 0 mm 1 mps 750 mmHg 91%
    22:00 +11°C° 0 mm 1 mps 750 mmHg 95%
    23:00 +10°C° 0 mm 1 mps 749 mmHg 95%
    Show more